Precipitable_Water
0.20 0.23 0.22 0.21 0.21 0.21 0.20 0.21 0.19 0.21 0.26 0.32 0.50 0.60 0.69 0.77 0.83 0.78 0.67 0.60 0.61 0.62 0.69 0.78 0.90 1.02 1.14 1.20 1.31 1.31 1.20 1.18 1.17 1.24 1.34 1.47 1.52 1.60 1.73 1.78 1.89 1.93 1.83 1.88
0.18 0.21 0.21 0.20 0.22 0.22 0.23 0.24 0.24 0.24 0.23 0.33 0.47 0.76 0.85 0.78 0.82 0.80 0.71 0.68 0.69 0.75 0.80 0.86 0.91 0.93 0.96 1.02 1.11 1.17 1.17 1.22 1.44 1.63 1.64 1.62 1.67 1.72 1.73 1.75 1.83 1.84 1.78 1.84
0.16 0.20 0.21 0.18 0.21 0.22 0.23 0.25 0.23 0.20 0.23 0.33 0.39 0.55 0.70 0.82 0.83 0.82 0.72 0.74 0.78 0.77 0.88 0.97 1.00 1.02 1.00 1.09 1.20 1.22 1.32 1.41 1.42 1.43 1.42 1.46 1.50 1.51 1.51 1.53 1.59 1.63 1.71 1.76
0.17 0.18 0.14 0.19 0.25 0.25 0.23 0.24 0.27 0.27 0.30 0.36 0.38 0.47 0.66 0.85 0.80 0.84 0.82 0.83 0.93 0.91 1.00 1.10 1.21 1.21 1.27 1.28 1.23 1.22 1.20 1.21 1.28 1.33 1.29 1.31 1.32 1.30 1.35 1.43 1.48 1.55 1.58 1.64
0.19 0.18 0.19 0.19 0.22 0.24 0.24 0.25 0.30 0.30 0.32 0.38 0.49 0.61 0.69 0.87 0.88 0.94 0.92 0.97 1.10 1.15 1.18 1.24 1.27 1.37 1.38 1.33 1.34 1.32 1.26 1.21 1.15 1.11 1.12 1.12 1.06 1.05 1.10 1.12 1.14 1.20 1.31 1.39
0.26 0.20 0.16 0.20 0.26 0.31 0.32 0.20 0.32 0.34 0.34 0.38 0.53 0.45 0.51 0.76 0.90 1.06 1.10 1.13 1.22 1.31 1.38 1.40 1.42 1.50 1.50 1.44 1.42 1.36 1.39 1.37 1.37 1.25 1.13 1.03 0.99 0.96 0.96 1.02 1.05 1.11 1.10 1.11
0.32 0.28 0.25 0.28 0.34 0.38 0.22 0.20 0.31 0.35 0.36 0.42 0.44 0.51 0.67 0.87 0.98 1.19 1.16 1.24 1.41 1.45 1.44 1.47 1.49 1.49 1.37 1.35 1.29 1.28 1.24 1.16 1.04 0.95 0.88 0.88 0.86 0.84 0.80 0.75 0.73 0.72 0.72 0.78
0.35 0.31 0.26 0.45 0.43 0.30 0.35 0.38 0.41 0.41 0.41 0.50 0.61 0.75 0.84 0.94 1.06 1.17 1.20 1.32 1.46 1.41 1.36 1.37 1.41 1.45 1.34 1.19 1.13 1.10 1.09 1.07 1.03 1.00 0.94 0.90 0.86 0.80 0.78 0.73 0.68 0.65 0.64 0.63
0.40 0.38 0.51 0.56 0.54 0.57 0.55 0.50 0.53 0.52 0.56 0.64 0.68 0.73 0.89 0.98 1.15 1.25 1.30 1.36 1.38 1.24 1.22 1.31 1.31 1.23 1.13 1.17 1.21 1.20 1.06 0.99 1.02 0.96 0.89 0.87 0.82 0.76 0.69 0.67 0.63 0.61 0.60 0.60
0.47 0.51 0.54 0.58 0.61 0.63 0.67 0.64 0.67 0.68 0.68 0.72 0.75 0.91 0.99 1.13 1.22 1.24 1.27 1.12 1.15 1.19 1.18 1.17 1.23 1.26 1.27 1.25 1.15 1.08 1.00 0.97 0.95 0.94 0.90 0.90 0.88 0.79 0.71 0.68 0.68 0.69 0.67 0.68
0.54 0.59 0.62 0.68 0.70 0.69 0.70 0.76 0.77 0.81 0.83 0.85 0.89 0.93 0.96 1.01 1.05 1.05 1.08 1.12 1.17 1.17 1.20 1.20 1.23 1.25 1.22 1.20 1.14 1.07 1.06 1.05 0.97 0.93 0.90 0.81 0.75 0.73 0.71 0.74 0.77 0.72 0.73 0.77
0.41 0.55 0.59 0.66 0.77 0.81 0.78 0.77 0.81 0.81 0.84 0.90 0.88 0.89 0.97 0.99 1.06 1.11 1.14 1.20 1.19 1.19 1.20 1.17 1.16 1.22 1.24 1.25 1.21 1.13 1.02 0.95 0.91 0.87 0.79 0.75 0.75 0.76 0.90 0.94 0.95 0.95 0.89 0.84
0.59 0.65 0.65 0.71 0.78 0.85 0.88 0.93 0.96 0.96 0.98 0.94 1.01 1.03 1.06 1.05 1.11 1.12 1.15 1.12 1.14 1.07 1.15 1.13 1.19 1.22 1.25 1.26 1.19 1.10 0.96 0.92 0.88 0.81 0.79 0.80 0.84 0.86 0.82 0.89 0.91 0.89 0.87 0.83
0.74 0.72 0.66 0.69 0.68 0.80 0.86 0.93 1.00 0.99 1.04 1.08 1.05 1.04 1.05 1.01 1.03 1.07 1.09 1.13 1.16 1.18 1.20 1.22 1.21 1.19 1.21 1.13 1.05 0.99 0.98 0.94 0.87 0.87 0.90 0.92 0.95 0.92 0.89 0.82 0.77 0.75 0.83 0.85
0.73 0.76 0.76 0.80 0.82 0.83 0.87 0.89 0.88 0.86 0.91 0.94 1.00 1.01 1.03 1.00 1.03 1.10 1.17 1.18 1.19 1.19 1.16 1.15 1.08 1.05 1.09 1.07 1.01 0.99 0.95 0.93 0.95 0.96 0.98 0.97 0.94 0.90 0.86 0.79 0.75 0.76 0.79 0.81
0.69 0.73 0.77 0.76 0.79 0.83 0.82 0.83 0.80 0.81 0.85 0.87 0.90 0.93 0.96 0.98 1.01 1.05 1.08 1.09 1.04 1.01 1.05 1.04 1.01 1.03 1.07 1.06 1.04 1.00 1.00 1.01 0.99 0.98 0.97 0.95 0.90 0.83 0.78 0.78 0.77 0.78 0.86 0.93
0.65 0.61 0.69 0.73 0.79 0.78 0.80 0.85 0.81 0.83 0.83 0.80 0.83 0.89 0.90 0.92 0.93 0.94 0.98 1.02 1.03 1.04 1.06 1.05 1.03 1.09 1.09 1.07 1.06 1.04 1.05 1.03 1.01 0.96 0.89 0.83 0.80 0.79 0.79 0.76 0.79 0.91 0.96 1.02
0.75 0.73 0.72 0.72 0.72 0.73 0.73 0.82 0.87 0.85 0.81 0.84 0.87 0.87 0.86 0.86 0.87 0.94 1.01 1.06 1.07 1.05 1.05 1.05 1.05 1.08 1.11 1.09 1.08 1.06 1.02 0.97 0.90 0.83 0.82 0.81 0.82 0.81 0.80 0.85 0.96 0.98 1.01 1.08
0.78 0.71 0.69 0.68 0.68 0.72 0.78 0.85 0.89 0.89 0.87 0.87 0.87 0.89 0.96 1.01 1.03 1.02 1.00 0.95 0.91 0.89 0.97 1.10 1.12 1.13 1.11 1.12 1.12 1.04 0.94 0.85 0.81 0.84 0.86 0.85 0.84 0.86 0.93 1.01 1.04 1.06 1.08 1.07
0.74 0.78 0.78 0.79 0.83 0.83 0.82 0.86 0.87 0.89 0.95 0.95 0.94 0.95 0.94 0.96 0.98 0.98 0.99 0.99 1.07 1.11 1.19 1.17 1.14 1.09 1.04 0.99 0.92 0.84 0.80 0.81 0.83 0.83 0.83 0.83 0.88 0.97 1.06 1.10 1.10 1.07 1.10 1.11
0.79 0.80 0.81 0.85 0.89 0.93 0.94 0.95 0.93 0.93 0.98 1.01 0.99 0.97 0.98 1.02 1.05 1.03 0.96 0.92 0.99 1.02 0.99 0.96 0.96 0.97 0.95 0.91 0.87 0.85 0.81 0.81 0.83 0.86 0.92 0.96 1.06 1.09 1.11 1.06 1.06 1.07 1.06 1.06
0.85 0.87 0.91 0.95 0.94 0.96 0.98 0.98 1.00 1.01 1.01 1.00 1.01 1.05 1.03 1.01 1.01 1.00 1.02 0.88 0.91 0.93 0.95 0.98 1.00 0.97 0.90 0.87 0.83 0.71 0.77 0.91 0.95 0.98 1.05 1.09 1.10 1.08 1.06 1.02 1.00 1.03 1.06 1.09
0.97 1.00 1.00 0.98 0.96 0.97 1.01 1.04 1.05 1.06 1.03 1.04 1.04 1.03 1.01 0.99 0.95 0.84 0.82 0.97 0.99 1.02 1.07 1.07 1.03 0.95 0.91 0.82 0.69 0.71 0.85 1.03 1.03 1.05 1.12 1.12 1.08 1.05 1.02 1.00 0.99 1.02 1.07 1.10
1.10 1.05 1.04 1.08 1.09 1.07 1.05 1.06 1.05 1.07 1.08 1.09 1.06 1.01 0.89 0.86 0.89 0.97 0.99 1.02 1.09 1.08 1.06 1.07 1.01 1.03 0.92 0.74 0.71 0.75 1.00 1.09 1.10 1.11 1.10 1.07 1.08 1.11 1.09 1.10 0.98 0.99 1.09 1.11
1.12 1.08 1.07 1.08 1.06 1.05 1.06 1.06 1.04 1.04 1.04 1.01 0.95 0.92 0.92 0.97 0.92 1.00 1.04 1.10 1.10 1.08 1.09 1.02 1.06 1.06 0.82 0.69 0.72 0.78 0.92 1.10 1.11 1.11 1.11 1.11 1.13 1.12 1.13 1.11 1.04 1.02 1.08 1.12
1.00 0.93 0.92 0.91 0.88 0.88 0.91 0.95 0.88 0.88 0.88 0.86 0.87 0.87 0.93 0.98 1.01 1.02 1.04 1.09 1.11 1.09 1.05 1.13 1.06 0.84 0.66 0.62 0.62 0.68 0.75 0.94 1.07 1.09 1.08 1.10 1.12 1.12 1.12 1.11 1.10 1.08 1.07 1.07
0.85 0.84 0.82 0.82 0.83 0.80 0.74 0.73 0.75 0.77 0.82 0.84 0.83 0.88 0.89 0.91 0.93 0.98 1.06 1.06 1.05 1.07 0.95 0.84 0.70 0.59 0.59 0.57 0.57 0.61 0.65 0.71 0.78 0.81 0.86 0.88 0.93 1.01 1.03 1.04 1.05 1.05 1.07 1.04
Wind_Speed
27 24 20 17 17 19 20 19 19 17 17 14 16 18 17 15 13 11 8 6 3 2 2 2 2 3 4 5 7 8 9 10 11 13 15 16 18 19 19 20 21 21 21 22
28 26 25 24 21 19 18 15 17 15 18 17 17 18 19 18 17 15 12 10 7 5 4 3 3 5 6 7 8 8 10 11 13 14 15 16 17 18 19 21 21 22 23 23
26 23 21 23 26 23 20 18 19 18 20 16 16 21 22 22 20 18 15 13 10 8 7 6 6 6 7 8 8 9 10 11 13 14 15 16 17 19 20 21 22 22 23 23
20 21 26 22 20 24 24 21 21 20 20 20 20 23 22 23 23 20 18 15 12 10 8 7 7 8 9 9 10 10 11 12 13 14 15 16 17 19 20 20 21 22 22 23
19 22 19 21 21 20 19 22 22 23 23 23 21 21 22 23 24 22 21 17 15 13 11 11 11 10 11 12 13 13 14 15 16 17 17 19 20 21 21 22 23 23 23 23
17 20 23 22 18 19 20 26 21 24 26 24 20 22 24 25 24 23 20 19 16 15 14 14 14 14 14 15 16 17 18 19 20 21 21 22 23 24 25 26 26 26 27 27
18 17 19 18 19 20 20 22 17 19 23 26 26 24 23 22 23 24 21 19 18 17 16 17 17 17 18 19 20 20 21 21 23 24 25 26 27 27 28 28 29 30 31 31
17 19 21 16 17 20 18 19 19 17 18 20 22 21 21 21 24 24 22 20 19 18 18 18 18 18 19 20 21 23 24 26 27 28 29 30 30 31 31 32 32 32 32 33
19 16 17 19 21 22 22 21 18 16 13 15 15 19 20 20 22 23 22 20 19 19 19 20 21 21 22 23 25 26 26 29 30 31 31 31 32 32 33 33 34 33 33 33
19 19 20 19 20 20 19 19 17 14 12 12 13 14 16 17 19 20 21 20 20 20 22 23 24 25 27 26 25 27 29 30 31 32 33 34 34 35 35 35 34 34 34 34
18 18 17 15 15 15 14 13 12 12 12 11 12 13 15 17 18 20 21 23 24 24 25 26 28 29 28 28 30 31 33 34 34 34 34 35 36 36 35 35 34 34 35 35
16 17 16 14 13 12 12 11 11 11 11 12 12 13 15 17 19 21 23 25 27 30 31 30 28 29 30 31 33 35 36 37 37 39 39 38 37 37 36 37 37 36 36 37
16 16 15 16 15 14 13 12 12 12 13 13 14 15 17 19 22 24 27 30 29 27 25 27 28 29 31 33 36 38 39 39 39 39 38 38 38 38 39 38 39 39 40 40
16 16 16 18 17 16 16 15 15 15 16 18 19 21 22 21 23 25 24 24 25 26 28 29 30 32 35 38 38 39 40 39 39 39 38 38 38 39 40 40 41 41 42 43
14 16 17 18 18 19 19 19 19 18 18 18 19 20 21 22 23 24 25 26 27 28 30 32 34 36 38 38 39 40 39 38 38 38 37 38 39 40 41 42 43 44 45 45
17 17 17 17 17 19 19 19 19 19 19 19 20 21 22 23 24 25 26 27 28 30 31 33 35 36 37 37 37 36 36 35 36 36 37 37 38 40 41 41 42 43 42 41
17 17 18 19 19 19 18 19 20 20 21 21 21 21 22 22 23 24 25 27 28 30 32 34 35 35 35 34 34 33 33 34 35 36 36 37 38 39 40 41 41 39 39 40
18 19 19 19 19 19 19 19 18 18 18 18 18 18 19 20 21 22 23 25 27 30 31 31 30 30 29 29 29 30 32 33 34 35 37 38 39 40 39 38 37 37 37 38
14 16 17 18 18 18 17 17 16 15 15 15 16 16 18 19 19 21 23 24 25 26 25 26 25 25 25 26 28 30 32 33 35 35 36 37 37 36 34 33 33 33 35 35
12 12 12 12 13 13 13 13 14 14 14 15 15 16 17 18 19 21 22 23 23 24 24 23 23 23 24 26 28 29 31 33 34 34 34 34 32 28 26 27 28 29 31 32
11 11 10 10 11 12 13 13 13 13 13 15 15 17 17 18 19 20 20 20 20 20 20 21 22 23 24 26 27 29 30 31 33 33 32 26 22 21 21 23 25 27 28 30
13 13 12 12 12 12 13 13 13 14 16 17 17 16 16 17 18 18 18 19 19 20 20 20 20 22 23 25 26 27 30 32 29 25 20 16 15 16 19 21 23 24 26 26
13 12 11 11 12 12 13 14 15 15 15 15 15 16 17 18 17 17 17 18 19 19 19 21 21 21 22 22 24 26 27 26 21 15 12 13 14 15 16 18 21 22 21 22
10 11 11 11 12 15 15 15 15 14 14 14 14 15 16 16 16 16 17 17 16 18 19 18 16 15 17 19 20 22 21 20 14 10 10 10 11 12 15 17 19 20 20 20
2 3 4 5 6 7 10 11 12 13 14 14 15 15 15 15 15 15 14 14 14 15 12 12 12 13 15 15 18 16 19 16 15 13 11 11 11 12 13 16 17 19 20 20
1 0 2 3 6 8 11 13 14 15 16 16 16 15 14 14 13 12 13 13 11 9 11 12 10 9 11 14 16 15 16 18 17 17 16 16 14 13 14 15 16 17 19 19
2 4 6 7 9 12 13 14 15 16 16 16 16 15 15 14 12 11 11 7 6 7 8 6 7 8 9 12 13 13 15 15 17 17 18 18 18 17 17 16 17 17 18 18
Wind_Direction
230 227 225 233 226 224 232 238 236 242 239 249 232 225 220 216 219 228 241 241 249 279 340 340 325 314 301 297 290 287 282 283 286 287 288 287 285 284 282 284 285 285 286 285
230 226 228 236 237 233 234 235 245 245 249 252 248 232 229 226 224 226 233 237 243 257 260 287 315 321 308 304 299 293 290 290 291 292 294 292 291 289 286 286 286 286 286 284
228 225 224 238 230 229 236 237 244 245 251 248 248 235 229 225 221 223 229 229 238 249 256 267 286 303 309 313 312 304 299 298 298 298 298 297 296 294 292 291 289 288 288 286
226 217 229 238 234 232 233 242 244 257 258 251 252 236 231 223 220 222 226 229 236 245 254 263 285 300 294 298 307 308 304 304 303 302 302 302 301 300 298 295 292 291 290 288
224 222 238 236 229 227 232 247 251 257 259 258 256 239 233 226 223 224 227 232 237 246 255 267 278 286 295 299 301 299 301 300 302 301 299 299 298 298 297 295 293 291 290 289
221 228 233 235 231 234 244 260 254 260 260 252 240 236 237 227 226 225 228 231 237 246 255 266 276 276 288 292 296 300 298 295 296 296 297 298 298 297 295 294 291 289 287 286
224 233 242 242 234 236 243 262 272 274 263 245 238 244 236 227 226 223 229 232 239 248 258 267 274 276 284 288 291 295 295 296 296 294 294 295 295 295 294 293 291 289 286 285
228 232 241 241 234 240 259 265 269 278 262 247 238 236 232 229 221 221 226 231 238 249 260 267 273 279 285 290 293 294 295 295 296 293 294 294 294 294 293 292 291 289 287 285
231 237 245 247 250 256 262 261 264 266 263 239 232 229 230 228 221 220 222 232 241 253 260 269 273 278 284 287 292 294 295 298 294 295 295 294 294 295 294 292 291 290 289 287
239 242 249 255 254 254 257 256 253 251 244 234 228 222 217 214 213 217 226 237 247 255 264 270 274 279 286 284 290 294 297 300 298 295 295 294 293 294 294 292 290 289 289 288
240 246 248 252 252 245 244 242 239 242 235 225 217 213 213 215 220 228 241 250 257 262 268 274 279 279 282 284 289 293 294 296 296 296 295 293 293 293 292 292 290 290 289 288
239 242 246 241 238 233 232 230 230 221 225 225 222 224 225 230 241 247 252 259 262 268 274 276 279 281 284 287 290 293 295 296 295 293 293 292 291 291 289 289 289 288 288 288
239 238 239 234 230 232 231 233 234 233 234 236 239 240 244 251 258 264 267 269 269 274 273 278 280 282 285 289 292 294 294 294 294 293 292 291 292 291 290 290 287 287 288 288
238 241 240 235 235 235 235 240 242 243 249 252 255 260 260 266 270 266 270 271 273 274 278 279 282 284 287 291 292 293 294 293 292 292 291 290 291 290 290 290 290 290 288 288
245 246 246 242 241 242 245 248 246 252 254 258 262 263 266 270 270 272 275 277 277 277 279 282 285 287 290 291 291 292 291 293 292 292 291 291 291 290 290 290 290 291 290 290
253 251 246 245 244 248 250 247 250 255 259 262 266 269 272 274 275 275 277 278 280 281 283 286 288 289 291 292 292 292 293 293 293 293 293 293 292 292 292 292 292 292 292 291
247 247 247 249 250 251 253 252 255 257 261 267 268 270 273 275 276 278 280 281 282 285 287 289 290 291 291 292 292 293 294 295 296 296 296 295 295 295 295 294 294 293 293 293
249 254 255 252 250 251 252 249 253 257 262 264 268 272 275 279 280 282 284 286 288 290 291 293 293 293 294 294 295 296 297 298 299 298 299 298 297 297 296 295 294 295 295 296
258 256 255 255 253 247 244 246 251 254 259 262 270 275 281 284 285 288 290 291 292 294 296 296 296 296 297 298 299 300 300 301 301 302 302 301 300 299 297 296 298 299 300 300
260 258 256 249 243 237 238 245 249 255 262 267 272 278 284 286 289 292 294 295 297 297 297 297 298 299 301 302 304 305 305 306 306 305 305 305 304 302 302 304 305 307 308 308
256 249 244 238 240 242 246 251 253 258 263 270 274 281 285 290 293 295 296 298 301 301 301 301 302 303 304 307 308 310 311 311 309 308 308 306 305 307 311 314 316 317 318 318
251 247 244 246 248 248 249 251 257 264 273 275 278 279 285 292 296 297 298 300 303 304 304 304 305 307 310 312 314 316 317 316 313 311 311 312 316 318 322 325 328 329 331 332
240 238 239 244 248 248 251 260 267 273 274 276 278 283 288 293 297 297 299 304 306 307 308 307 306 309 313 316 321 323 325 327 322 317 315 322 325 328 334 339 343 345 348 350
238 237 241 250 257 262 264 264 267 271 275 279 283 287 291 293 295 298 301 306 310 314 316 317 316 318 322 326 331 336 340 347 349 345 338 339 342 345 350 353 358 1 4 8
137 197 211 256 266 265 270 272 273 274 276 279 284 289 291 293 297 300 302 306 311 317 325 332 332 333 345 350 355 359 3 10 13 13 12 4 2 3 6 11 15 20 22 27
33 355 291 298 299 294 285 282 281 281 281 281 282 284 287 291 294 297 300 305 311 318 325 325 331 344 351 2 4 9 15 24 29 33 34 30 30 27 24 24 28 31 31 36
305 301 302 303 306 310 304 295 289 286 284 283 281 281 282 284 284 287 293 295 309 329 350 0 347 353 356 6 13 22 25 30 33 35 37 38 39 39 37 38 34 35 36 40